Home   Weather   Brno   Past weeks

Flag for Czech Republic Past Weather in Brno, Czech Republic — Yesterday and Last 2 Weeks

Now
40 °F

Low clouds.


Feels Like: 38 °F
Forecast: 38 / 56 °F
Wind: 3 mph from Northwest

Location: Brno / Turany

Current Time: Apr 28, 2017 at 10:30:24 pm

Latest Report: Apr 28, 2017 at 9:00 pm


Visibility: 13 mi

Pressure: 29.92 "Hg

Humidity: 90%

Dew Point: 37 °F

Location of BrnoLocation

Past Weather in Brno — Graph

°F

Brno Temperature Yesterday

Maximum temperature yesterday: 46 °F (at 2:00 pm)
Minimum temperature yesterday: 40 °F (at 6:00 am)
Average temperature yesterday: 42 °F

High & Low Weather Summary for the Past Weeks

 TemperatureHumidityPressure
High61 °F (Apr 25, 3:00 pm)96% (Apr 28, 7:00 pm)30.54 "Hg (Apr 28, 7:00 pm)
Low29 °F (Apr 21, 3:00 am)35% (Apr 16, 5:00 pm)29.71 "Hg (Apr 25, 7:00 pm)
Average44 °F69%30.05 "Hg
* Reported Apr 13 9:00 pm — Apr 28 9:00 pm, Brno, Weather by CustomWeather, © 2017

Note: Actual official high and low records may vary slightly from our data, if they occured in-between our weather recording intervals... More about our weather records

Advertising

Brno Weather History for the Previous 24 Hours

Scroll right to see more
 ConditionsComfort  
Time TempWeatherWind HumidityBarometerVisibility
9:00 pm
Fri, Apr 28
40 °FLow clouds.3 mph90%29.92 "Hg12 mi
8:00 pm40 °FLight rain. Low clouds.3 mph94%29.89 "Hg3 mi
7:00 pm41 °FLight rain. Low clouds.3 mph96%29.88 "Hg6 mi
6:00 pm41 °FLight rain. Overcast.5 mph89%29.86 "Hg3 mi
5:00 pm41 °FLight rain. Overcast.2 mph85%29.84 "Hg16 mi
4:00 pm41 °FLight rain. Overcast.5 mph85%29.84 "Hg37 mi
3:00 pm41 °FLight rain. Low clouds.5 mph85%29.84 "Hg12 mi
2:00 pm41 °FLight rain. Low clouds.3 mph87%29.83 "Hg17 mi
1:00 pm40 °FLight rain. Low clouds.2 mph87%29.83 "Hg16 mi
12:00 pm40 °FLight rain. Overcast.5 mph83%29.85 "Hg19 mi
11:00 am39 °FOvercast.5 mph86%29.85 "Hg19 mi
10:00 am39 °FLow clouds.3 mph87%29.82 "Hg19 mi
9:00 am38 °FOvercast.5 mph88%29.84 "Hg19 mi
8:00 am38 °FLow clouds.6 mph91%29.82 "Hg19 mi
7:00 am37 °FOvercast.5 mph90%29.83 "Hg12 mi
6:00 am38 °FLight rain. Overcast.5 mph91%29.82 "Hg6 mi
5:00 am39 °FRain. Overcast.5 mph94%29.83 "Hg6 mi
4:00 am40 °FLight rain. Overcast.6 mph86%29.82 "Hg12 mi
3:00 am40 °FLight rain. Overcast.3 mph87%29.84 "Hg12 mi
2:00 am40 °FLight rain. Overcast.3 mph89%29.89 "Hg7 mi
1:00 am40 °FLight rain. Overcast.3 mph86%29.92 "Hg12 mi
12:00 am41 °FLight rain. Overcast.3 mph87%29.93 "Hg12 mi
11:00 pm
Thu, Apr 27
41 °FRain. Overcast.2 mph89%29.96 "Hg9 mi
10:00 pm42 °FRain. Overcast.3 mph90%29.98 "Hg7 mi
Weather by CustomWeather, © 2017

See weather overviewHow to use our weather pages